Home > Weather > Bologna > Past weeks

Flag for Italy Weather for the Past 2 Weeks in Bologna, Italy

Now
54 °F

Light rain. Passing clouds.


Feels Like: 50 °F
Forecast: 43 / 53 °F
Wind: 12 mph from Southeast

Location: Bologna / Borgo Panigale

Current Time: Feb 9, 2016 at 10:41:24 PM

Latest Report: Feb 9, 2016 at 9:50 PM


Visibility: N/A

Pressure: 29.42 "Hg

Humidity: 82%

Dew point: 48 °F

Location of BolognaLocation

Historic Weather in Bologna — Graph

°F

Bologna Temperature Yesterday

Maximum temperature yesterday: 52 °F (at 1:20 PM)
Minimum temperature yesterday: 41 °F (at 8:50 PM)
Average temperature yesterday: 46 °F

High & Low Weather Summary for the Past Weeks

 TemperatureHumidityPressure
High63 °F (Feb 9, 1:50 PM)100% (Jan 26, 9:20 PM)30.48 "Hg (Jan 26, 9:20 PM)
Low32 °F (Jan 27, 6:50 AM)32% (Feb 4, 5:20 PM)29.47 "Hg (Feb 9, 8:50 PM)
Average45 °F86%30.22 "Hg
* Reported Jan 25 9:20 PM — Feb 9 9:20 PM, Bologna, Weather by CustomWeather, © 2016

Note: Actual official high and low records may vary slightly from our data, if they occured in-between our weather recording intervals... More about our weather records

Advertising

Bologna Weather History for the Previous 24 Hours

 ConditionsComfort  
Time TempWeatherWind HumidityBarometerVisibility
9:20 PM
Tue, Feb 9
55 °FLight rain. Passing clouds.8 mph77%29.47 "HgN/A
8:50 PM55 °FLight rain. Passing clouds.8 mph72%29.47 "HgN/A
8:20 PM57 °FPassing clouds.12 mph63%29.50 "HgN/A
7:50 PM55 °FPassing clouds.10 mph67%29.53 "HgN/A
7:20 PM55 °FPassing clouds.13 mph67%29.56 "HgN/A
6:50 PM55 °FPartly cloudy.13 mph67%29.59 "HgN/A
6:20 PM57 °FPartly cloudy.12 mph63%29.62 "HgN/A
5:50 PM57 °FPartly cloudy.8 mph63%29.62 "HgN/A
5:20 PM55 °FPartly sunny.9 mph67%29.65 "HgN/A
4:50 PM57 °FPartly sunny.13 mph63%29.68 "HgN/A
4:20 PM57 °FPartly sunny.13 mph63%29.71 "HgN/A
3:50 PM59 °FPartly sunny.12 mph55%29.74 "HgN/A
3:20 PM59 °FPartly sunny.15 mph55%29.74 "HgN/A
2:50 PM61 °FPartly sunny.15 mph52%29.77 "HgN/A
2:20 PM61 °FScattered clouds.20 mph48%29.80 "HgN/A
1:50 PM63 °FScattered clouds.16 mph45%29.83 "HgN/A
12:50 PM61 °FScattered clouds.8 mph52%29.86 "HgN/A
12:20 PM52 °FScattered clouds.6 mph88%29.89 "Hg6 mi
11:50 AM52 °FScattered clouds.5 mph77%29.92 "Hg4 mi
10:50 AM48 °FScattered clouds.6 mph87%29.95 "Hg4 mi
10:20 AM48 °FPassing clouds.6 mph87%29.95 "Hg4 mi
9:50 AM46 °FScattered clouds.5 mph93%29.95 "Hg4 mi
8:50 AM39 °FScattered clouds.No wind100%29.98 "Hg4 mi
8:20 AM36 °FScattered clouds.2 mph100%29.98 "Hg4 mi
7:50 AM37 °FFog.3 mph100%29.98 "Hg2 mi
6:50 AM37 °FPassing clouds.3 mph100%29.98 "Hg3 mi
6:20 AM36 °FFog.3 mph100%29.98 "Hg1 mi
5:50 AM36 °FChilly.5 mph100%29.98 "Hg2 mi
5:20 AM36 °FFog.5 mph93%29.98 "Hg0 mi
4:50 AM36 °FChilly.2 mph100%29.98 "Hg3 mi
4:20 AM36 °FFog.1 mph100%29.98 "HgN/A
3:50 AM37 °FFog.No wind100%29.98 "HgN/A
3:20 AM37 °FClear.1 mph100%29.98 "Hg10 mi
2:50 AM39 °FClear.2 mph93%29.98 "Hg10 mi
2:20 AM41 °FClear.1 mph93%29.98 "Hg10 mi
1:50 AM37 °FClear.3 mph100%29.98 "Hg10 mi
1:20 AM41 °FClear.2 mph100%29.98 "Hg10 mi
12:50 AM39 °FClear.2 mph100%29.98 "Hg10 mi
12:20 AM43 °FClear.1 mph93%30.01 "Hg10 mi
11:50 PM
Mon, Feb 8
43 °FPassing clouds.3 mph100%30.01 "HgN/A
11:20 PM45 °FClear.2 mph93%30.01 "Hg10 mi
10:50 PM43 °FClear.2 mph93%30.01 "Hg10 mi
10:20 PM43 °FPassing clouds.3 mph93%30.01 "HgN/A
Weather by CustomWeather, © 2016

See weather overviewHow to use our weather pages